sat.trackr.live / text

‹ back to catalog

STARLINK-32763

NORAD 62750 · 2025-014R

PAYLOAD ACTIVE UNKNOWN

§ Identity

Operator
Country
US
Launch date
2025-01-21
Launch site
AFETR
Launch vehicle
Mass (kg)
RCS (m²)

Purposes: comms

External: N2YO · Heavens-Above · Gunter

§ Orbital elements

Epoch: 2026-09-21T00:30:50.816736Z

Period
94.27 min
Inclination
43.0056°
Eccentricity
0.0000946
Mean motion
15.27592491 rev/d
Perigee alt
482.4 km
Apogee alt
483.7 km
Semi-major
6,861.1 km
B*
3.6189e-4
RAAN
131.0144°
Arg perigee
351.7500°
Mean anomaly
8.3336°
Rev number
9,313

§ Raw data

STARLINK-327631 62750U 25014R   26264.02142149  .00009713  00000+0  36189-3 0  99942 62750  43.0056 131.0144 0000946 351.7500   8.3336 15.27592491 93138

JSON: /api/v1/satellites/62750 · /tle

For live sub-satellite position, see the globe view (requires WebGL).

§ Visibility from observer

Set your observer location to see the next 7 days of passes ≥ 10°. The values pass through the URL so the page stays shareable.

No JS? Fill the form by hand. The geolocation button needs JavaScript.